Temp
63 64 64 61 60 57 54 53 51 48 49 51 51 51 50 48 48 48 48 49 49 49
62 62 62 61 61 60 59 58 56 53 51 51 49 49 49 47 46 46 48 48 47 46
61 61 61 60 58 58 58 56 54 52 49 46 46 46 45 43 44 44 46 46 44 43
58 59 59 57 57 56 56 54 50 48 46 44 43 44 44 41 42 42 43 43 41 40
57 57 56 56 56 55 53 51 49 47 44 44 43 42 42 41 41 41 40 40 39 38
54 54 54 54 54 53 51 47 45 43 41 41 41 39 41 41 40 40 39 40 39 37
52 53 54 54 52 50 48 44 43 40 40 41 40 38 39 38 38 38 39 38 39 37
51 52 53 50 48 47 45 44 42 39 38 38 38 38 38 38 37 36 35 35 35 36
48 45 44 44 42 40 39 39 38 36 36 36 37 40 40 38 35 35 34 32 33 32
41 40 40 40 39 38 38 38 35 35 35 35 35 39 40 38 35 34 33 33 32 30
38 37 37 37 37 37 37 35 35 34 34 34 33 39 39 37 33 32 31 32 31 31
37 35 36 35 35 36 35 34 33 33 32 31 31 38 38 34 31 29 29 30 31 32
35 34 33 34 34 34 34 32 31 30 31 30 31 36 36 33 30 28 28 29 31 31
34 33 34 33 33 33 31 30 29 28 29 30 33 34 36 34 30 30 28 29 30 30
MSLP
1014.07 1014.21 1014.31 1014.90 1015.23 1015.89 1016.53 1017.08 1017.80 1018.63 1019.14 1019.67 1020.18 1020.46 1021.29 1021.84 1022.58 1023.11 1023.11 1023.48 1024.05 1024.59
1013.44 1013.75 1013.91 1014.48 1014.81 1015.15 1015.62 1016.06 1016.72 1017.52 1018.37 1018.94 1019.69 1020.03 1020.57 1021.34 1021.90 1022.71 1022.79 1023.12 1023.71 1024.31
1012.71 1013.08 1013.49 1013.85 1014.18 1014.82 1015.36 1015.68 1016.34 1017.07 1017.90 1018.65 1019.23 1019.70 1020.28 1020.92 1021.51 1022.25 1022.63 1022.79 1023.47 1024.33
1012.34 1012.59 1012.97 1013.38 1013.74 1014.24 1014.84 1015.27 1016.09 1016.87 1017.69 1018.30 1018.88 1019.47 1020.02 1020.63 1021.38 1021.98 1022.36 1022.58 1023.16 1024.11
1012.25 1012.38 1012.56 1012.92 1013.31 1013.87 1014.40 1014.97 1015.69 1016.54 1017.32 1017.96 1018.55 1019.22 1019.74 1020.21 1020.86 1021.47 1021.91 1022.31 1022.74 1023.81
1011.54 1011.88 1012.05 1012.43 1012.90 1013.46 1014.05 1014.70 1015.51 1016.28 1016.98 1017.66 1018.14 1018.65 1019.38 1019.69 1020.09 1020.62 1021.12 1021.78 1022.20 1022.92
1011.05 1011.35 1011.62 1012.01 1012.47 1013.00 1013.70 1014.35 1014.96 1015.73 1016.47 1017.12 1017.73 1018.22 1018.89 1019.48 1020.02 1020.41 1020.81 1021.40 1022.20 1022.82
1010.75 1011.09 1011.37 1011.72 1012.08 1012.59 1013.28 1013.88 1014.41 1015.25 1016.09 1016.81 1017.37 1017.77 1018.45 1019.03 1019.63 1020.28 1021.09 1021.56 1022.22 1022.90
1010.42 1010.92 1011.43 1011.80 1012.24 1012.85 1013.43 1013.88 1014.37 1015.07 1015.73 1016.43 1016.93 1017.30 1017.99 1018.68 1019.52 1020.26 1020.97 1021.63 1022.41 1023.34
1010.31 1010.80 1011.34 1011.89 1012.50 1013.03 1013.47 1013.97 1014.46 1014.88 1015.47 1016.05 1016.73 1017.25 1017.92 1018.54 1019.28 1020.20 1020.84 1021.51 1022.27 1023.44
1010.39 1010.94 1011.52 1012.09 1012.48 1013.04 1013.60 1014.16 1014.62 1015.10 1015.55 1016.04 1016.64 1017.30 1018.11 1018.83 1019.31 1020.12 1021.02 1021.75 1022.38 1023.19
1010.66 1011.06 1011.49 1011.97 1012.41 1012.86 1013.44 1014.09 1014.66 1015.22 1015.81 1016.28 1016.86 1017.48 1018.23 1019.09 1019.52 1020.14 1021.14 1021.82 1022.36 1022.75
1010.81 1011.10 1011.53 1011.99 1012.39 1012.76 1013.31 1014.07 1014.70 1015.33 1015.86 1016.45 1017.07 1017.71 1018.45 1019.40 1019.73 1020.36 1021.17 1021.79 1022.35 1022.68
1010.99 1011.25 1011.49 1012.11 1012.64 1013.13 1013.65 1014.32 1014.89 1015.44 1015.95 1016.22 1016.78 1017.34 1018.02 1018.82 1019.39 1019.82 1020.99 1021.81 1022.24 1022.65
Wind_Speed
15 11 10 12 10 10 10 10 11 11 11 12 13 12 11 9 10 10 9 9 7 5
13 14 11 12 11 10 12 10 12 13 12 12 11 11 11 8 10 10 10 8 7 5
13 13 13 11 12 12 10 9 11 11 11 11 11 12 11 6 7 8 7 7 9 7
12 13 13 12 12 13 11 11 11 11 11 11 11 11 11 8 8 10 9 9 10 9
12 12 13 14 13 12 11 9 10 10 10 10 10 10 12 12 12 12 12 12 12 11
12 13 14 14 13 11 10 10 9 9 9 10 11 11 10 11 13 12 12 13 14 14
12 13 12 12 12 11 11 11 11 9 10 11 11 10 10 9 9 9 9 11 10 12
10 11 11 11 10 9 11 10 10 10 8 9 10 9 12 11 11 10 8 8 9 10
8 7 7 6 6 7 7 7 9 9 10 10 8 16 18 13 10 10 12 11 10 9
5 6 6 6 7 8 8 8 8 9 9 10 7 17 19 17 9 10 10 11 11 9
5 6 5 6 7 6 6 7 6 6 6 6 5 16 19 16 10 9 8 8 10 10
6 6 7 7 7 5 6 5 5 5 6 7 5 16 18 13 9 10 8 8 10 10
5 6 6 6 5 4 6 6 6 6 6 7 7 18 20 13 6 9 7 7 8 11
4 4 5 5 5 6 7 8 7 7 7 9 9 15 22 20 7 7 7 6 7 5
Wind_Direction
223 225 221 215 203 200 197 193 178 185 191 197 193 178 186 183 194 207 188 186 179 171
221 222 225 215 216 210 202 193 187 186 194 193 191 184 179 182 189 198 190 181 161 143
220 219 223 214 209 215 206 181 184 184 190 187 188 183 173 172 185 182 187 164 147 135
222 218 218 219 212 209 200 181 180 184 190 186 182 182 177 161 173 183 170 155 148 146
225 220 218 218 212 206 203 185 185 183 185 185 182 179 182 170 175 177 171 163 150 151
220 221 220 217 211 206 194 181 176 171 180 185 185 174 187 180 175 176 172 169 163 157
222 220 219 215 208 198 191 181 179 176 185 191 186 178 176 170 175 174 168 162 161 158
220 220 220 216 203 187 189 186 176 169 178 178 183 179 179 176 170 160 148 139 135 144
213 204 216 208 180 173 179 173 163 173 176 182 190 187 185 166 160 154 152 140 131 125
177 177 185 168 168 180 183 173 177 178 176 188 186 187 183 166 153 152 151 151 142 139
161 172 167 176 184 180 176 179 177 175 174 164 166 183 186 167 145 132 129 149 144 149
180 169 171 178 174 163 149 152 158 155 151 148 150 176 178 160 139 129 135 147 164 161
154 153 160 162 156 127 136 135 125 124 135 135 148 173 175 164 147 149 158 169 175 172
115 128 133 129 123 128 121 120 122 124 133 149 164 173 180 182 174 166 163 176 185 187